Weather History for KFIG - May, 2013

Change the Weather History Date:

Sunday, May 19, 2013

  Actual Average (KDUJ) Record (KDUJ)
Temperature  
Mean Temperature 62 °F 57 °F  
Max Temperature 66 °F 68 °F 86 °F (1971)
Min Temperature 57 °F 46 °F 28 °F (2002)
Degree Days  
Heating Degree Days 4 9  
Month to date heating degree days 204  
Since 1 July heating degree days 6717  
Cooling Degree Days 0 1  
Month to date cooling degree days 7  
Year to date cooling degree days 11  
Growing Degree Days 12 (Base 50)    
Moisture  
Dew Point 56 °F    
Average Humidity 84    
Maximum Humidity 90    
Minimum Humidity 73    
Precipitation  
Precipitation 0.00 in 0.14 in 0.94 in (1997)
Month to date precipitation 2.51  
Sea Level Pressure  
Sea Level Pressure 30.15 in    
Wind  
Wind Speed 4 mph (SE)    
Max Wind Speed 8 mph    
Max Gust Speed 16 mph    
Visibility 10 miles    
Events      
T = Trace of Precipitation, MM = Missing Value Source: NWS Daily Summary

Daily Weather History Graph

Daily Weather History Graph

Search for Another Location

Airport or City:

Trip Planner

Search our weather history database for the weather conditions in past years. The results will help you decide how hot, cold, wet, or windy it might be!

Date:

Astronomy

May. 19, 2013 Rise Set
Actual Time 5:51 AM EDT 8:28 PM EDT
Civil Twilight 5:20 AM EDT 9:00 PM EDT
Nautical Twilight 4:40 AM EDT 9:40 PM EDT
Astronomical Twilight 3:55 AM EDT 10:25 PM EDT
Moon 2:28 PM EDT (5/19) 2:17 AM EDT (5/19)
Length of Visible Light 15h 40m
Length of Day
14h 37m
Waxing Gibbous, 65% of the Moon is Illuminated
May 19
Waxing Gibbous
May 25
Full
May 31
Last Quarter
Jun 8
New
Jun 16
First Quarter

Hourly Weather History & Observations

Time (EDT) Temp. Dew Point Humidity Pressure Visibility Wind Dir Wind Speed Gust Speed Precip Events Conditions
12:54 AM 57.9 °F 53.1 °F 84% 30.18 in 10.0 mi Variable 5.8 mph - N/A   Overcast
1:54 AM 57.0 °F 53.1 °F 87% 30.17 in 10.0 mi Variable 4.6 mph - N/A   Overcast
2:54 AM 57.0 °F 53.1 °F 87% 30.17 in 10.0 mi Variable 3.5 mph - N/A   Overcast
3:24 AM 57.2 °F 53.6 °F 88% 30.17 in 10.0 mi SE 4.6 mph - N/A   Overcast
3:54 AM 57.0 °F 53.1 °F 87% 30.15 in 10.0 mi SE 3.5 mph - N/A   Overcast
4:54 AM 57.0 °F 54.0 °F 89% 30.16 in 10.0 mi ESE 3.5 mph - N/A   Overcast
5:54 AM 57.0 °F 54.0 °F 89% 30.16 in 10.0 mi Calm Calm - N/A   Overcast
6:54 AM 57.0 °F 54.0 °F 89% 30.18 in 10.0 mi Calm Calm - N/A   Overcast
8:54 AM 59.0 °F 55.0 °F 87% 30.19 in 10.0 mi Calm Calm - N/A   Overcast
9:54 AM 61.0 °F 55.0 °F 81% 30.19 in 10.0 mi Variable 4.6 mph - N/A   Overcast
10:54 AM 63.0 °F 55.9 °F 78% 30.18 in 10.0 mi ESE 8.1 mph - N/A   Overcast
11:27 AM 64.4 °F 57.2 °F 77% 30.18 in 10.0 mi Variable 4.6 mph - N/A   Overcast
11:54 AM 64.9 °F 57.0 °F 75% 30.16 in 10.0 mi East 8.1 mph - N/A   Overcast
12:54 PM 64.9 °F 55.9 °F 73% 30.15 in 10.0 mi Variable 6.9 mph 16.1 mph N/A   Overcast
1:54 PM 66.0 °F 57.0 °F 73% 30.13 in 10.0 mi SSE 6.9 mph - N/A   Overcast
4:54 PM 64.0 °F 57.0 °F 78% 30.11 in 10.0 mi Variable 5.8 mph - N/A   Overcast
5:15 PM 62.6 °F 57.2 °F 82% 30.11 in 10.0 mi SSE 4.6 mph - N/A   Overcast
5:54 PM 63.0 °F 57.9 °F 84% 30.11 in 10.0 mi Variable 3.5 mph - N/A   Overcast
7:54 PM 61.0 °F 57.9 °F 90% 30.11 in 10.0 mi Variable 5.8 mph - N/A   Overcast
8:09 PM 60.8 °F 57.2 °F 88% 30.11 in 10.0 mi ESE 4.6 mph - N/A   Overcast
8:54 PM 61.0 °F 57.9 °F 90% 30.11 in 10.0 mi Variable 4.6 mph - N/A   Overcast
9:54 PM 61.0 °F 57.9 °F 90% 30.12 in 10.0 mi Calm Calm - N/A   Overcast
10:54 PM 61.0 °F 57.9 °F 90% 30.12 in 10.0 mi ESE 3.5 mph - N/A   Overcast
11:31 PM 60.8 °F 57.2 °F 88% 30.12 in 10.0 mi Calm Calm - N/A   Overcast